Weather History for Fort Collins, CO

Change the Weather History Date:

Saturday, February 16, 2013

  Actual Average Record
Temperature  
Mean Temperature 36 °F -  
Max Temperature 59 °F 44 °F 66 °F (2011)
Min Temperature 14 °F 20 °F 3 °F (2006)
Degree Days  
Heating Degree Days 28    
Moisture  
Dew Point 13 °F    
Average Humidity 45    
Maximum Humidity 86    
Minimum Humidity 17    
Precipitation  
Precipitation 0.00 in - - ()
Sea Level Pressure  
Sea Level Pressure 30.07 in    
Wind  
Wind Speed 4 mph (NW)    
Max Wind Speed 22 mph    
Max Gust Speed 26 mph    
Visibility 10 miles    
Events      
Averages and records for this station are not official NWS values.
T = Trace of Precipitation, MM = Missing Value Source: NWS Daily Summary

Daily Weather History Graph

Daily Weather History Graph

Search for Another Location

Airport:

Trip Planner

Search our weather history database for the weather conditions in past years. The results will help you decide how hot, cold, wet, or windy it might be!

Date:

Astronomy

Feb. 16, 2013 Rise Set
Actual Time 6:51 AM MST 5:36 PM MST
Civil Twilight 6:23 AM MST 6:04 PM MST
Nautical Twilight 5:52 AM MST 6:36 PM MST
Astronomical Twilight 5:20 AM MST 7:08 PM MST
Moon 10:04 AM MST (2/16) No Moon Set
Length of Visible Light 11h 40m
Length of Day
10h 45m
Waxing Crescent, 40% of the Moon is Illuminated
Feb 16
Waxing Crescent
Feb 17
First Quarter
Feb 25
Full
Mar 4
Last Quarter
Mar 11
New

Hourly Weather History & Observations

Time (MST) Temp. Windchill Dew Point Humidity Pressure Visibility Wind Dir Wind Speed Gust Speed Precip Events Conditions
12:15 AM 21.2 °F - 14.0 °F 74% 30.20 in 10.0 mi Calm Calm - N/A   Clear
12:55 AM 19.4 °F - 12.2 °F 74% 30.19 in 10.0 mi Calm Calm - N/A   Clear
1:15 AM 19.4 °F - 12.2 °F 74% 30.18 in 10.0 mi Calm Calm - N/A   Clear
1:35 AM 19.4 °F - 14.0 °F 80% 30.18 in 10.0 mi Calm Calm - N/A   Clear
1:55 AM 19.4 °F - 14.0 °F 80% 30.18 in 10.0 mi Calm Calm - N/A   Clear
2:35 AM 17.6 °F - 12.2 °F 79% 30.17 in 10.0 mi Calm Calm - N/A   Clear
2:55 AM 15.8 °F - 12.2 °F 86% 30.16 in 10.0 mi Calm Calm - N/A   Clear
3:15 AM 19.4 °F - 14.0 °F 80% 30.15 in 10.0 mi Calm Calm - N/A   Clear
4:15 AM 17.6 °F - 12.2 °F 79% 30.14 in 10.0 mi Calm Calm - N/A   Clear
4:35 AM 15.8 °F 10.2 °F 12.2 °F 86% 30.14 in 10.0 mi North 3.5 mph - N/A   Clear
4:55 AM 17.6 °F - 12.2 °F 79% 30.14 in 10.0 mi Calm Calm - N/A   Clear
5:55 AM 17.6 °F - 12.2 °F 79% 30.12 in 10.0 mi Calm Calm - N/A   Clear
6:35 AM 15.8 °F - 10.4 °F 79% 30.11 in 10.0 mi Calm Calm - N/A   Clear
6:55 AM 14.0 °F 8.2 °F 10.4 °F 86% 30.11 in 10.0 mi West 3.5 mph - N/A   Clear
7:15 AM 17.6 °F 9.3 °F 10.4 °F 73% 30.13 in 10.0 mi NE 5.8 mph - N/A   Clear
7:55 AM 19.4 °F 14.3 °F 15.8 °F 86% 30.13 in 10.0 mi North 3.5 mph - N/A   Clear
8:15 AM 21.2 °F - 17.6 °F 86% 30.15 in 10.0 mi Calm Calm - N/A   Clear
8:35 AM 24.8 °F - 19.4 °F 80% 30.14 in 10.0 mi Calm Calm - N/A   Clear
9:15 AM 30.2 °F 26.7 °F 19.4 °F 64% 30.14 in 10.0 mi East 3.5 mph - N/A   Clear
9:35 AM 33.8 °F 29.6 °F 19.4 °F 56% 30.14 in 10.0 mi West 4.6 mph - N/A   Clear
9:55 AM 32.0 °F - 19.4 °F 60% 30.14 in 10.0 mi Calm Calm - N/A   Clear
10:15 AM 35.6 °F - 21.2 °F 56% 30.14 in 10.0 mi Calm Calm - N/A   Clear
10:35 AM 37.4 °F 32.8 °F 21.2 °F 52% 30.14 in 10.0 mi SSE 5.8 mph - N/A   Clear
11:15 AM 44.6 °F 39.7 °F 19.4 °F 37% 30.13 in 10.0 mi South 9.2 mph - N/A   Clear
11:35 AM 46.4 °F 41.9 °F 19.4 °F 34% 30.12 in 10.0 mi South 9.2 mph - N/A   Clear
11:55 AM 48.2 °F - 19.4 °F 32% 30.11 in 10.0 mi SSW 10.4 mph - N/A   Clear
12:15 PM 48.2 °F - 19.4 °F 32% 30.10 in 10.0 mi WSW 9.2 mph - N/A   Clear
12:35 PM 50.0 °F - 19.4 °F 30% 30.08 in 10.0 mi SW 8.1 mph - N/A   Clear
12:55 PM 51.8 °F - 19.4 °F 28% 30.07 in 10.0 mi South 8.1 mph - N/A   Clear
1:15 PM 53.6 °F - 17.6 °F 24% 30.07 in 10.0 mi South 4.6 mph - N/A   Clear
1:35 PM 55.4 °F - 17.6 °F 23% 30.06 in 10.0 mi SSW 3.5 mph - N/A   Clear
1:55 PM 55.4 °F - 15.8 °F 21% 30.05 in 10.0 mi WSW 4.6 mph - N/A   Clear
2:15 PM 57.2 °F - 17.6 °F 21% 30.05 in 10.0 mi Calm Calm - N/A   Clear
2:35 PM 55.4 °F - 15.8 °F 21% 30.04 in 10.0 mi Calm Calm - N/A   Clear
2:55 PM 59.0 °F - 17.6 °F 20% 30.04 in 10.0 mi NNW 9.2 mph 16.1 mph N/A   Clear
3:15 PM 59.0 °F - 15.8 °F 19% 30.03 in 10.0 mi NW 17.3 mph 20.7 mph N/A   Clear
3:35 PM 59.0 °F - 14.0 °F 17% 30.03 in 10.0 mi NNW 18.4 mph 24.2 mph N/A   Clear
3:55 PM 57.2 °F - 12.2 °F 17% 30.03 in 10.0 mi NW 17.3 mph - N/A   Clear
4:15 PM 57.2 °F - 12.2 °F 17% 30.03 in 10.0 mi WNW 19.6 mph 24.2 mph N/A   Clear
4:35 PM 55.4 °F - 10.4 °F 17% 30.03 in 10.0 mi NW 13.8 mph - N/A   Clear
4:55 PM 55.4 °F - 12.2 °F 18% 30.02 in 10.0 mi NNW 11.5 mph - N/A   Clear
5:15 PM 53.6 °F - 10.4 °F 18% 30.02 in 10.0 mi NNW 15.0 mph - N/A   Clear
5:35 PM 50.0 °F - 8.6 °F 19% 30.01 in 10.0 mi NW 21.9 mph 26.5 mph N/A   Clear
5:55 PM 48.2 °F - 6.8 °F 19% 30.01 in 10.0 mi North 9.2 mph - N/A   Clear
6:15 PM 46.4 °F 41.5 °F 6.8 °F 20% 30.01 in 10.0 mi North 10.4 mph - N/A   Clear
6:35 PM 46.4 °F 43.5 °F 8.6 °F 22% 30.01 in 10.0 mi SW 5.8 mph - N/A   Clear
6:55 PM 48.2 °F - 8.6 °F 20% 30.00 in 10.0 mi Calm Calm - N/A   Clear
7:15 PM 44.6 °F 41.4 °F 6.8 °F 21% 30.01 in 10.0 mi SE 5.8 mph - N/A   Clear
7:35 PM 41.0 °F 37.1 °F 5.0 °F 23% 30.00 in 10.0 mi East 5.8 mph - N/A   Clear
7:55 PM 41.0 °F 35.2 °F 6.8 °F 24% 30.00 in 10.0 mi East 9.2 mph - N/A   Clear
8:15 PM 39.2 °F 34.2 °F 6.8 °F 26% 30.00 in 10.0 mi ESE 6.9 mph - N/A   Clear
8:35 PM 39.2 °F 33.0 °F 6.8 °F 26% 29.99 in 10.0 mi ESE 9.2 mph - N/A   Clear
9:15 PM 37.4 °F 34.9 °F 6.8 °F 28% 29.98 in 10.0 mi SE 3.5 mph - N/A   Clear
9:35 PM 28.4 °F - 1.4 °F 31% 29.99 in 10.0 mi Calm Calm - N/A   Clear
9:55 PM 33.8 °F 26.4 °F 8.6 °F 35% 29.99 in 10.0 mi North 9.2 mph - N/A   Clear
10:15 PM 30.2 °F 24.3 °F 8.6 °F 40% 29.98 in 10.0 mi NE 5.8 mph - N/A   Clear
10:35 PM 32.0 °F 28.7 °F 8.6 °F 38% 29.97 in 10.0 mi NE 3.5 mph - N/A   Clear
10:55 PM 30.2 °F 25.4 °F 6.8 °F 37% 29.97 in 10.0 mi NE 4.6 mph - N/A   Clear
11:15 PM 24.8 °F 16.1 °F 3.2 °F 40% 29.97 in 10.0 mi West 8.1 mph - N/A   Clear
11:35 PM 28.4 °F - 12.2 °F 51% 29.95 in 10.0 mi Calm Calm - N/A   Clear
11:55 PM 30.2 °F - 12.2 °F 47% 29.95 in 10.0 mi Calm Calm - N/A   Clear